Home   Weather   Bacău   Past weeks
Flag for Romania

Past Weather in Bacău, Romania — Yesterday and Last 2 Weeks

Now
77 °F

Partly sunny.


Feels Like: 79 °F
Forecast: 73 / 56 °F
Wind: 13 mph from Southeast

Location: Bacau Airport

Current Time: May 20, 2019 at 5:51:28 pm

Latest Report: May 20, 2019 at 5:00 pm


Visibility: N/A

Pressure: 29.77 "Hg

Humidity: 65%

Dew Point: 64 °F

Location of BacăuLocation

Past Weather in Bacău — Graph

°F

Bacău Temperature Yesterday

Maximum temperature yesterday: 81 °F (at 5:00 pm)
Minimum temperature yesterday: 61 °F (at 12:30 am)
Average temperature yesterday: 69 °F

High & Low Weather Summary for the Past Weeks

 TemperatureHumidityPressure
High81 °F (May 17, 5:30 pm)100% (May 6, 6:00 am)30.18 "Hg (May 6, 6:00 am)
Low37 °F (May 9, 5:30 am)41% (May 13, 4:00 pm)29.59 "Hg (May 6, 3:30 pm)
Average59 °F83%29.89 "Hg
* Reported May 5 4:00 pm — May 20 4:30 pm, Bacău. Weather by CustomWeather, © 2019

Note: Actual official high and low records may vary slightly from our data, if they occured in-between our weather recording intervals... More about our weather records

Advertising

Bacău Weather History for the Previous 24 Hours

Scroll right to see more
 ConditionsComfort  
Time TempWeatherWind HumidityBarometerVisibility
4:30 pm
Mon, May 20
77 °FScattered clouds.14 mph65%29.77 "HgN/A
4:00 pm77 °FBroken clouds.12 mph65%29.77 "HgN/A
3:30 pm75 °FPartly sunny.12 mph69%29.80 "HgN/A
3:00 pm75 °FBroken clouds.8 mph74%29.80 "HgN/A
2:30 pm75 °FScattered clouds.8 mph74%29.80 "HgN/A
2:00 pm73 °FScattered clouds.9 mph78%29.83 "HgN/A
1:30 pm73 °FPassing clouds.13 mph78%29.83 "HgN/A
1:00 pm73 °FPassing clouds.13 mph78%29.83 "HgN/A
12:30 pm72 °FPassing clouds.15 mph83%29.83 "HgN/A
12:00 pm72 °FPassing clouds.17 mph78%29.83 "HgN/A
11:30 am73 °FScattered clouds.17 mph74%29.83 "HgN/A
11:00 am72 °FScattered clouds.17 mph78%29.80 "HgN/A
10:30 am70 °FScattered clouds.16 mph83%29.80 "HgN/A
10:00 am70 °FPartly sunny.16 mph83%29.83 "HgN/A
9:30 am68 °FScattered clouds.17 mph88%29.83 "HgN/A
9:00 am68 °FScattered clouds.14 mph94%29.80 "HgN/A
8:30 am68 °FMore clouds than sun.12 mph94%29.80 "Hg5 mi
8:00 am66 °FOvercast.8 mph100%29.80 "Hg5 mi
7:30 am66 °FOvercast.7 mph100%29.80 "Hg6 mi
7:00 am66 °FPartly sunny.8 mph100%29.80 "Hg6 mi
6:30 am64 °FOvercast.6 mph100%29.80 "Hg5 mi
6:00 am64 °FScattered clouds.6 mph100%29.80 "Hg4 mi
5:30 am64 °FClear.5 mph100%29.80 "Hg5 mi
5:00 am63 °FClear.7 mph100%29.80 "Hg5 mi
4:30 am63 °FClear.No wind100%29.80 "Hg4 mi
4:00 am64 °FFog.No wind100%29.80 "Hg4 mi
3:00 am63 °FClear.2 mph100%29.80 "Hg5 mi
2:30 am64 °FClear.5 mph100%29.80 "Hg10 mi
2:00 am64 °FMild.5 mph100%29.80 "HgN/A
1:30 am64 °FPassing clouds.3 mph100%29.80 "HgN/A
1:00 am64 °FPassing clouds.3 mph94%29.80 "HgN/A
12:30 am66 °FPassing clouds.2 mph94%29.80 "HgN/A
12:00 am66 °FPassing clouds.2 mph94%29.80 "HgN/A
11:30 pm
Sun, May 19
66 °FPassing clouds.5 mph94%29.80 "HgN/A
11:00 pm66 °FClear.No wind94%29.80 "Hg10 mi
10:30 pm68 °FClear.No wind88%29.80 "Hg10 mi
10:00 pm70 °FClear.No wind88%29.80 "Hg10 mi
9:30 pm70 °FClear.3 mph88%29.80 "Hg10 mi
9:00 pm72 °FPassing clouds.3 mph83%29.80 "HgN/A
8:30 pm73 °FScattered clouds.6 mph78%29.80 "HgN/A
8:00 pm75 °FScattered clouds.7 mph74%29.80 "HgN/A
7:30 pm77 °FPassing clouds.8 mph69%29.77 "HgN/A
7:00 pm79 °FPassing clouds.6 mph65%29.77 "HgN/A
6:30 pm79 °FScattered clouds.8 mph65%29.80 "HgN/A
6:00 pm79 °FScattered clouds.6 mph65%29.80 "HgN/A
5:30 pm79 °FScattered clouds.7 mph65%29.80 "HgN/A
5:00 pm81 °FScattered clouds.5 mph62%29.80 "HgN/A
Weather by CustomWeather, © 2019

See weather overview